Location: ??????
(33.3472°N, 35.4764°E)
Time: 20:00:20
(UTC+00:00)

NOSS 3-4 (C) - Pass Details

Date: 21 August 2019
Orbit: 912 x 1301 km, 63.4° (Epoch: 11 September)

Event Time Altitude Azimuth Distance (km) Brightness Sun altitude
Rises 00:56:56 0° 327° (NNW) 3,929 6.7 -24.8°
Reaches altitude 10° 00:59:31 10° 325° (NW) 3,022 6.1 -24.4°
Maximum altitude 01:06:47 73° 243° (WSW) 1,262 3.8 -23.2°
Drops below altitude 10° 01:14:38 10° 160° (SSE) 3,252 6.1 -21.8°
Sets 01:17:31 0° 158° (SSE) 4,244 6.7 -21.3°
